| time (UTC) | temp C | wind direction | speed KPH | gust KPH | rain 1hr cm | rain 24hr cm | rain mn cm | humidity % | barometer mb |
| 20260506084121 | 14 | 202 | 0.0 | 0.0 | 0.00 | 0.00 | 0.00 | 58 | 1009.1 |
| 20260506082346 | 14 | 270 | 0.0 | 0.0 | 0.00 | 0.00 | 0.00 | 60 | 1009.2 |
| 20260506080556 | 13 | 0 | 0.0 | 0.0 | 0.00 | 0.00 | 0.00 | 61 | 1008.9 |
| 20260506072846 | 12 | 292 | 0.0 | 0.0 | 0.00 | 0.00 | 0.00 | 65 | 1008.0 |
| 20260506071151 | 12 | 315 | 19.3 | 33.8 | 0.00 | 0.00 | 0.00 | 66 | 1009.5 |
| 20260506061626 | 12 | 315 | 0.0 | 0.0 | 0.00 | 0.00 | 0.00 | 71 | 1008.8 |
| 20260506050456 | 11 | 315 | 0.0 | 0.0 | 0.00 | 0.00 | 0.00 | 76 | 1008.3 |
| 20260506044611 | 10 | 315 | 0.0 | 0.0 | 0.00 | 0.00 | 0.00 | 77 | 1009.0 |
| 20260506042841 | 9 | 315 | 0.0 | 0.0 | 0.00 | 0.00 | 0.00 | 78 | 1008.7 |
| 20260506041121 | 9 | 292 | 0.0 | 0.0 | 0.00 | 0.00 | 0.00 | 79 | 1007.2 |
| 20260506035406 | 8 | 270 | 0.0 | 0.0 | 0.00 | 0.00 | 0.00 | 79 | 1006.9 |
| 20260506033621 | 7 | 270 | 0.0 | 0.0 | 0.00 | 0.00 | 0.00 | 80 | 1007.7 |
| 20260506031721 | 5 | 247 | 0.0 | 0.0 | 0.00 | 0.00 | 0.00 | 81 | 1006.3 |
| 20260506030001 | 4 | 292 | 0.0 | 0.0 | 0.00 | 0.00 | 0.00 | 81 | 1007.0 |
| 20260506024056 | 3 | 247 | 0.0 | 0.0 | 0.00 | 0.00 | 0.00 | 82 | 1006.9 |
| 20260506022151 | 3 | 247 | 0.0 | 0.0 | 0.00 | 0.00 | 0.00 | 83 | 1007.7 |
| 20260506020331 | 2 | 270 | 0.0 | 0.0 | 0.00 | 0.00 | 0.00 | 82 | 1006.6 |
| 20260506014641 | 3 | 247 | 0.0 | 0.0 | 0.00 | 0.00 | 0.00 | 82 | 1005.8 |
| 20260506012841 | 3 | 225 | 0.0 | 0.0 | 0.00 | 0.00 | 0.00 | 82 | 1006.8 |
| 20260506011141 | 3 | 247 | 0.0 | 0.0 | 0.00 | 0.00 | 0.00 | 82 | 1005.4 |
| 20260506005356 | 2 | 247 | 0.0 | 0.0 | 0.00 | 0.00 | 0.00 | 82 | 1006.2 |
| 20260506003501 | 3 | 225 | 0.0 | 0.0 | 0.00 | 0.00 | 0.00 | 81 | 1005.9 |
| 20260506001601 | 3 | 202 | 0.0 | 0.0 | 0.00 | 0.00 | 0.00 | 81 | 1004.6 |
| 20260505235811 | 3 | 247 | 0.0 | 0.0 | 0.00 | 0.00 | 0.00 | 81 | 1005.1 |
| 20260505234056 | 3 | 202 | 0.0 | 0.0 | 0.00 | 0.00 | 0.00 | 80 | 1005.2 |
| 20260505232221 | 2 | 247 | 0.0 | 0.0 | 0.00 | 0.00 | 0.00 | 80 | 1005.4 |
| 20260505230301 | 2 | 247 | 0.0 | 0.0 | 0.00 | 0.00 | 0.00 | 80 | 1003.9 |
| 20260505224531 | 2 | 247 | 0.0 | 0.0 | 0.00 | 0.00 | 0.00 | 79 | 1005.1 |
| 20260505222721 | 3 | 225 | 0.0 | 0.0 | 0.00 | 0.00 | 0.00 | 79 | 1006.2 |
| 20260505220941 | 3 | 202 | 0.0 | 0.0 | 0.00 | 0.00 | 0.00 | 78 | 1005.4 |
| 20260505215256 | 3 | 225 | 0.0 | 0.0 | 0.00 | 0.00 | 0.00 | 78 | 1004.7 |
| 20260505213436 | 3 | 202 | 0.0 | 0.0 | 0.00 | 0.00 | 0.00 | 77 | 1004.8 |
| 20260505211601 | 3 | 202 | 0.0 | 0.0 | 0.00 | 0.00 | 0.00 | 77 | 1005.8 |
| 20260505205745 | 3 | 180 | 0.0 | 0.0 | 0.00 | 0.00 | 0.00 | 76 | 1004.9 |
| 20260505203941 | 4 | 202 | 0.0 | 0.0 | 0.00 | 0.00 | 0.00 | 75 | 1004.6 |
| 20260505202156 | 5 | 180 | 0.0 | 0.0 | 0.00 | 0.00 | 0.00 | 74 | 1004.1 |
| 20260505200521 | 5 | 225 | 0.0 | 0.0 | 0.00 | 0.00 | 0.00 | 74 | 1005.0 |
| 20260505194811 | 5 | 202 | 0.0 | 0.0 | 0.00 | 0.00 | 0.00 | 73 | 1004.8 |
| 20260505192936 | 6 | 247 | 0.0 | 0.0 | 0.00 | 0.00 | 0.00 | 71 | 1004.4 |
| 20260505191241 | 6 | 270 | 0.0 | 0.0 | 0.00 | 0.00 | 0.00 | 70 | 1005.2 |
| 20260505185456 | 6 | 247 | 0.0 | 0.0 | 0.00 | 0.00 | 0.00 | 69 | 1004.4 |
| 20260505183601 | 7 | 292 | 0.0 | 0.0 | 0.00 | 0.00 | 0.00 | 68 | 1004.4 |
| 20260505181631 | 7 | 270 | 0.0 | 0.0 | 0.00 | 0.00 | 0.00 | 66 | 1004.2 |
| 20260505175811 | 8 | 292 | 0.0 | 0.0 | 0.00 | 0.00 | 0.00 | 64 | 1003.4 |
| 20260505174026 | 8 | 270 | 0.0 | 0.0 | 0.00 | 0.00 | 0.00 | 63 | 1004.1 |
| 20260505172421 | 10 | 292 | 0.0 | 0.0 | 0.00 | 0.00 | 0.00 | 62 | 1003.8 |
| 20260505170711 | 10 | 292 | 0.0 | 29.0 | 0.00 | 0.00 | 0.00 | 61 | 1003.2 |
| 20260505165001 | 11 | 270 | 0.0 | 32.2 | 0.00 | 0.00 | 0.00 | 61 | 1005.0 |
| 20260505163236 | 11 | 247 | 0.0 | 0.0 | 0.00 | 0.00 | 0.00 | 61 | 1003.6 |
| 20260505161551 | 12 | 180 | 0.0 | 0.0 | 0.00 | 0.00 | 0.00 | 60 | 1003.5 |
| 20260505152136 | 13 | 292 | 24.1 | 38.6 | 0.00 | 0.00 | 0.00 | 59 | 1004.4 |
| 20260505150331 | 13 | 315 | 0.0 | 48.3 | 0.00 | 0.00 | 0.00 | 59 | 1004.1 |
| 20260505123746 | 16 | 270 | 17.7 | 40.2 | 0.00 | 0.00 | 0.00 | 61 | 1002.7 |
| 20260505122016 | 16 | 225 | 12.9 | 33.8 | 0.00 | 0.00 | 0.00 | 62 | 1001.5 |
| 20260505120201 | 16 | 270 | 20.9 | 33.8 | 0.00 | 0.00 | 0.00 | 64 | 1002.8 |
| 20260505114401 | 15 | 0 | 25.7 | 54.7 | 0.00 | 0.00 | 0.00 | 64 | 1002.0 |
| 20260505112621 | 16 | 292 | 0.0 | 17.7 | 0.00 | 0.00 | 0.00 | 65 | 1002.2 |
| 20260505110851 | 15 | 292 | 17.7 | 35.4 | 0.00 | 0.00 | 0.00 | 66 | 1002.6 |
| 20260505101811 | 16 | 315 | 19.3 | 38.6 | 0.00 | 0.00 | 0.00 | 67 | 1001.4 |
| 20260505100121 | 16 | 202 | 19.3 | 30.6 | 0.00 | 0.00 | 0.00 | 68 | 1001.7 |
| 20260505094341 | 16 | 247 | 0.0 | 29.0 | 0.00 | 0.00 | 0.00 | 69 | 1001.6 |
| 20260505092546 | 16 | 315 | 0.0 | 29.0 | 0.00 | 0.00 | 0.00 | 70 | 1001.6 |
| 20260505090736 | 15 | 247 | 0.0 | 29.0 | 0.00 | 0.00 | 0.00 | 72 | 1000.6 |
| 20260505085101 | 15 | 225 | 25.7 | 27.4 | 0.00 | 0.00 | 0.00 | 72 | 1001.1 |